User: anonymous   Login
Location: Gleizolles
(44.4833°N, 6.7667°E)
Time: 12:50:38
(UTC+00:00)
Language:

Transit 2A Rocket - Orbit

View from above orbital plane
View from above orbital plane
View from above satellite
View from above satellite

Ground track
Ground track

The orbit data is extracted from the following two-line orbital elements,

1    47U 60007C   24177.22644573  .00000616  00000-0  15601-3 0  9997
2    47  66.6632 184.9080 0229735 306.8720  51.1517 14.43602386346961
Epoch (UTC): 25 June 2024 05:26:04
Eccentricity: 0.0229735
inclination: 66.6632°
perigee height: 583 km
apogee height: 910 km
right ascension of ascending node: 184.9080°
argument of perigee: 306.8720°
revolutions per day: 14.43602386
mean anomaly at epoch: 51.1517°
orbit number at epoch: 34696

The dashed part of the orbit path shows where the satellite is in the earth's shadow,  

DLR